{"data":{"norad_id":67498,"epoch":"2026-09-19T10:50:09.403872Z","epoch_age_seconds":162811,"freshness":"FRESH","line1":"1 67498U 26012F   26262.45149773  .00010854  00000+0  40330-3 0  9993","line2":"2 67498  43.0014 300.2870 0002084 275.4611  84.6003 15.27584397 37392","mean_motion":15.27584397,"eccentricity":0.0002084,"inclination_deg":43.0014,"raan_deg":300.287,"arg_perigee_deg":275.4611,"mean_anomaly_deg":84.6003,"bstar":0.0004033,"rev_number":3739,"period_min":94.266477376176,"perigee_km":481.60606143284,"apogee_km":484.46579831001,"semimajor_km":6861.1729298714,"source":"CELESTRAK","updated_at":"2026-09-20T09:00:43.557102Z"}}